Regional Weather Roundup
Issued by NWS

Home | Current Version | Previous Version | Graphics & Text | Print | Product List | Glossary Off
Versions: 1 2 3 4 5 6 7 8 9 10 11 12 13 14 15 16 17 18 19 20 21 22 23 24 25 26 27 28 29 30 31 32 33 34 35 36 37 38 39 40 41 42 43 44 45 46 47 48 49 50

000
ASUS43 KLSX 160507
RWRMO

WEATHER SUMMARY FOR MISSOURI
NATIONAL WEATHER SERVICE SPRINGFIELD MO
1100 PM CST FRI DEC 15 2017

NOTE: "FAIR" INDICATES FEW OR NO CLOUDS BELOW 12,000 FEET WITH NO
       SIGNIFICANT WEATHER AND/OR OBSTRUCTIONS TO VISIBILITY.
       CURRENT SKY AND/OR WEATHER CONDITIONS ARE NOT AVAILABLE FOR
       CHILLICOTHE AND FARMINGTON.

MOZ001>031-035>038-043-044-053-054-160600-
...NORTHERN AND WESTERN MISSOURI...

CITY           SKY/WX    TMP DP  RH WIND       PRES   REMARKS
KANSAS CTY INT CLEAR     39  25  57 SW15      29.91S
KANSAS C DTWN  CLEAR     44  25  47 SW17G24   29.93S
LEE`S SUMMIT   CLEAR     40  25  55 SW20      29.94F
ST JOSEPH      CLEAR     40  27  59 SW14      29.88S
CHILLICOTHE      N/A     36  23  59 S9        29.91S WCI  29
KIRKSVILLE     CLEAR     36  27  69 SW13      29.90S WCI  27

$$
MOZ066>068-077>081-088>096-101>105-160600-
...SOUTHWEST MISSOURI...

CITY           SKY/WX    TMP DP  RH WIND       PRES   REMARKS
SPRINGFIELD    CLEAR     33  25  72 S9        30.06S WCI  25
JOPLIN         CLEAR     40  26  57 S16       30.06F
BRANSON        MOCLDY    36  27  69 SW5       30.11S

$$
MOZ032>034-039>042-045>050-055>058-069>072-160600-
...CENTRAL MISSOURI...

CITY           SKY/WX    TMP DP  RH WIND       PRES   REMARKS
COLUMBIA       CLEAR     35  26  69 S13       30.00S WCI  26
JEFFERSON CITY CLEAR     35  25  66 SE5       30.04S
ROLLA          CLEAR     33  25  72 SW13      30.04F WCI  24
SEDALIA        CLEAR     40  26  57 SW15      29.99F
WHITEMAN AFB   CLEAR     37  23  57 SW16      29.93F WCI  28
WARRENSBURG    CLEAR     36  25  64 S13       29.97F WCI  27
OSAGE BEACH    CLEAR     33  24  69 S8        30.05S WCI  26

$$
MOZ051-052-059>065-160600-
...EAST CENTRAL MISSOURI...

CITY           SKY/WX    TMP DP  RH WIND       PRES   REMARKS
ST LOUIS INTL  CLEAR     37  26  64 SW9       30.05S
SPIRIT OF STL  CLEAR     26  23  88 VRB3      30.04F
ST CHARLES     CLEAR     34  24  67 S12       30.04F WCI  25

$$
MOZ072>076-082>087-097>100-106>115-160600-
...SOUTH CENTRAL AND SOUTHEAST MISSOURI...

CITY           SKY/WX    TMP DP  RH WIND       PRES   REMARKS
CAPE GIRARDEAU CLEAR     33  26  75 SW6       30.13R WCI  28
FARMINGTON     CLEAR     28  23  81 CALM      30.09S
POPLAR BLUFF   PTCLDY    34  28  79 SW6       30.14R WCI  29
WEST PLAINS    CLEAR     33  24  69 SW5       30.11S WCI  29

$$


USA.gov is the U.S. government's official web portal to all federal, state and local government web resources and services.